period_start,C,m1,H,J0,J1,J2,J3,J4,J5,JA,JB,JC,JD,JJ,JK,JN,#
2014-06-06 00:01:14,0.04,0.39,0.00,25.31,29.52,31.85,9.49,38.72,1018.07,2030.35,3299.81,3197.52,3474.97,500.13,493.72,32.31,0000 0000 0000 0000 000000
2014-06-06 00:06:15,0.01,0.40,0.00,25.34,29.53,31.87,9.54,38.67,1018.07,2030.13,3298.78,3196.89,3474.07,500.05,493.55,32.35,0000 0000 0000 0000 000000
2014-06-06 00:11:17,0.04,0.40,0.00,25.37,29.55,31.88,9.62,38.53,1018.05,2030.07,3298.03,3196.12,3473.75,500.17,493.95,32.39,0000 0000 0000 0000 000000
2014-06-06 00:16:18,0.02,0.40,0.00,25.40,29.56,31.89,9.46,38.62,1018.07,2030.04,3297.49,3195.96,3473.05,499.96,493.62,32.43,0000 0000 0000 0000 000000
2014-06-06 00:21:19,0.04,0.40,0.00,25.43,29.57,31.91,9.54,38.58,1018.08,2030.01,3296.89,3195.37,3472.67,499.90,493.15,32.47,0000 0000 0000 0000 000000
2014-06-06 00:26:20,0.02,0.40,0.00,25.46,29.60,31.92,9.50,38.51,1018.07,2030.00,3296.09,3194.96,3472.02,499.98,493.36,32.51,0000 0000 0000 0000 000000
2014-06-06 00:31:21,0.06,0.40,0.00,25.49,29.61,31.94,9.52,38.45,1018.06,2030.00,3295.25,3194.13,3471.36,500.25,493.46,32.56,0000 0000 0000 0000 000000
2014-06-06 00:36:22,0.05,0.40,0.00,25.52,29.62,31.95,9.55,38.44,1018.07,2030.00,3294.27,3193.60,3470.78,500.29,493.47,32.60,0000 0000 0000 0000 000000
2014-06-06 00:41:23,0.05,0.41,0.00,25.55,29.65,31.96,9.49,38.38,1018.08,2029.99,3293.21,3192.90,3469.96,500.15,493.54,32.64,0000 0000 0000 0000 000000
2014-06-06 00:46:24,0.05,0.41,0.00,25.57,29.66,31.98,9.50,38.49,1018.08,2029.99,3292.39,3192.15,3469.23,499.86,492.98,32.68,0000 0000 0000 0000 000000
2014-06-06 00:51:25,0.01,0.41,0.00,25.60,29.68,32.00,9.53,38.42,1018.08,2029.97,3291.82,3191.98,3468.96,500.11,493.07,32.72,0000 0000 0000 0000 000000
2014-06-06 00:56:27,0.05,0.41,0.00,25.62,29.70,32.02,9.56,38.58,1018.08,2029.96,3291.04,3191.26,3468.22,500.29,493.36,32.76,0000 0000 0000 0000 000000
2014-06-06 01:01:27,0.02,0.41,0.00,25.66,29.72,32.04,9.51,38.48,1018.08,2029.97,3290.39,3191.00,3467.99,500.23,493.15,32.80,0000 0000 0000 0000 000000
2014-06-06 01:06:28,0.01,0.41,0.00,25.67,29.73,32.05,9.53,38.35,1018.08,2029.90,3290.00,3190.83,3467.61,500.37,493.27,32.85,0000 0000 0000 0000 000000
2014-06-06 01:11:29,0.01,0.42,0.00,25.70,29.75,32.07,9.47,38.36,1018.08,2029.67,3289.57,3190.14,3467.05,499.82,492.78,32.89,0000 0000 0000 0000 000000
2014-06-06 01:16:30,-0.03,0.41,0.00,25.74,29.77,32.09,9.40,38.38,1018.08,2029.31,3289.01,3190.00,3466.96,500.06,492.97,32.93,0000 0000 0000 0000 000000
2014-06-06 01:21:32,0.02,0.41,0.00,25.77,29.78,32.11,9.51,38.45,1018.06,2029.28,3288.77,3189.85,3466.45,500.30,492.95,32.97,0000 0000 0000 0000 000000
2014-06-06 01:26:32,0.02,0.42,0.00,25.81,29.80,32.13,9.45,38.38,1018.01,2029.06,3288.05,3189.11,3466.00,499.72,492.44,33.01,0000 0000 0000 0000 000000
2014-06-06 01:31:33,0.01,0.42,0.00,25.85,29.82,32.15,9.52,38.32,1017.94,2029.03,3287.85,3189.00,3465.83,500.04,492.81,33.05,0000 0000 0000 0000 000000
2014-06-06 01:36:35,0.03,0.42,0.00,25.88,29.84,32.17,9.54,38.33,1017.91,2029.02,3287.11,3188.71,3465.10,500.36,492.89,33.10,0000 0000 0000 0000 000000
2014-06-06 01:41:36,0.04,0.42,0.00,25.91,29.86,32.19,9.33,38.17,1017.78,2029.00,3286.48,3188.03,3464.75,499.66,492.21,33.14,0000 0000 0000 0000 000000
2014-06-06 01:46:37,0.08,0.42,0.00,25.96,29.89,32.22,9.59,38.38,1017.63,2029.00,3285.26,3187.12,3463.66,500.75,492.87,33.18,0000 0000 0000 0000 000000
2014-06-06 01:51:39,0.18,0.43,0.00,26.00,29.92,32.24,9.50,38.33,1017.62,2029.00,3282.19,3185.04,3461.48,500.09,492.28,33.22,0000 0000 0000 0000 000000
2014-06-06 01:56:40,0.07,0.43,0.00,26.04,29.94,32.26,9.35,38.27,1017.60,2028.99,3280.20,3183.86,3460.07,499.74,491.90,33.26,0000 0000 0000 0000 000000
2014-06-06 02:01:41,0.02,0.43,0.00,26.08,29.97,32.29,9.48,38.23,1017.59,2028.98,3279.98,3183.15,3459.76,500.22,492.27,33.30,0000 0000 0000 0000 000000
2014-06-06 02:06:42,0.01,0.44,0.00,26.12,30.00,32.32,9.53,38.12,1017.59,2028.89,3279.50,3183.00,3459.06,500.14,492.08,33.35,0000 0000 0000 0000 000000
2014-06-06 02:11:43,-0.03,0.43,0.00,26.16,30.03,32.35,9.45,38.19,1017.60,2028.56,3279.05,3182.76,3459.00,500.06,491.75,33.39,0000 0000 0000 0000 000000
2014-06-06 02:16:45,0.01,0.43,0.00,26.20,30.06,32.38,9.51,38.18,1017.59,2028.16,3278.90,3182.10,3458.57,500.27,492.05,33.43,0000 0000 0000 0000 000000
2014-06-06 02:21:46,0.01,0.43,0.00,26.26,30.09,32.41,9.51,38.19,1017.59,2028.04,3278.13,3182.00,3458.02,500.00,491.90,33.47,0000 0000 0000 0000 000000
2014-06-06 02:26:48,0.05,0.44,0.00,26.30,30.12,32.44,9.41,38.04,1017.59,2028.00,3277.80,3181.41,3457.55,499.82,491.49,33.51,0000 0000 0000 0000 000000
2014-06-06 02:31:49,0.02,0.44,0.00,26.34,30.15,32.47,9.48,38.29,1017.59,2028.00,3277.10,3181.01,3457.03,500.12,491.69,33.55,0000 0000 0000 0000 000000
2014-06-06 02:36:50,0.01,0.44,0.00,26.39,30.18,32.51,9.45,38.27,1017.61,2027.98,3276.95,3180.86,3456.87,500.21,491.77,33.59,0000 0000 0000 0000 000000
2014-06-06 02:41:51,0.04,0.44,0.00,26.42,30.21,32.54,9.47,38.23,1017.61,2027.92,3276.18,3180.16,3456.15,500.09,491.67,33.64,0000 0000 0000 0000 000000
2014-06-06 02:46:52,-0.03,0.44,0.00,26.47,30.25,32.58,9.57,38.16,1017.60,2027.55,3275.98,3180.00,3456.00,500.14,491.56,33.68,0000 0000 0000 0000 000000
2014-06-06 02:51:53,-0.01,0.44,0.00,26.49,30.28,32.61,9.50,38.22,1017.59,2027.21,3275.41,3179.73,3455.62,499.69,491.12,33.72,0000 0000 0000 0000 000000
2014-06-06 02:56:54,0.01,0.44,0.00,26.52,30.31,32.65,9.45,38.17,1017.59,2027.02,3275.00,3179.06,3455.03,500.39,491.71,33.76,0000 0000 0000 0000 000000
2014-06-06 03:01:55,0.02,0.44,0.00,26.56,30.34,32.69,9.52,38.24,1017.60,2027.00,3274.47,3178.94,3454.86,499.95,491.22,33.80,0000 0000 0000 0000 000000
2014-06-06 03:06:56,0.04,0.44,0.00,26.59,30.38,32.71,9.40,38.06,1017.61,2027.00,3274.01,3178.29,3454.14,499.63,490.86,33.84,0000 0000 0000 0000 000000
2014-06-06 03:11:57,0.01,0.44,0.00,26.61,30.41,32.75,9.42,38.03,1017.61,2026.99,3273.48,3178.00,3453.95,500.33,491.51,33.89,0000 0000 0000 0000 000000
2014-06-06 03:16:58,0.04,0.44,0.00,26.66,30.45,32.79,9.50,38.19,1017.61,2026.95,3273.01,3177.49,3453.19,500.07,491.29,33.93,0000 0000 0000 0000 000000
2014-06-06 03:21:59,-0.02,0.44,0.00,26.69,30.48,32.82,9.46,38.30,1017.60,2026.69,3272.60,3177.02,3452.99,500.13,491.29,33.97,0000 0000 0000 0000 000000
2014-06-06 03:27:01,0.00,0.44,0.00,26.72,30.51,32.86,9.43,38.09,1017.60,2026.57,3272.06,3176.97,3452.68,499.83,490.75,34.01,0000 0000 0000 0000 000000
2014-06-06 03:32:02,0.01,0.44,0.00,26.76,30.55,32.89,9.38,37.99,1017.60,2026.15,3271.54,3176.22,3452.02,499.84,490.72,34.05,0000 0000 0000 0000 000000
2014-06-06 03:37:03,0.01,0.44,0.00,26.80,30.59,32.92,9.43,38.17,1017.61,2026.00,3271.02,3175.98,3451.59,500.21,490.89,34.09,0000 0000 0000 0000 000000
2014-06-06 03:42:04,0.04,0.44,0.00,26.82,30.62,32.96,9.35,37.92,1017.61,2026.00,3270.62,3175.48,3451.02,499.81,490.61,34.14,0000 0000 0000 0000 000000
2014-06-06 03:47:05,0.01,0.45,0.00,26.86,30.66,33.00,9.41,38.00,1017.60,2026.00,3270.06,3175.02,3450.90,500.07,490.86,34.18,0000 0000 0000 0000 000000
2014-06-06 03:52:06,0.01,0.45,0.00,26.90,30.69,33.03,9.36,38.38,1017.60,2026.00,3269.99,3175.00,3450.31,499.58,490.40,34.22,0000 0000 0000 0000 000000
2014-06-06 03:57:07,0.02,0.45,0.00,26.92,30.72,33.06,9.44,38.38,1017.59,2025.95,3269.55,3174.66,3450.01,500.22,490.74,34.26,0000 0000 0000 0000 000000
2014-06-06 04:02:08,-0.02,0.45,0.00,26.94,30.76,33.10,9.42,38.40,1017.60,2025.68,3269.02,3174.04,3449.76,500.12,490.87,34.30,0000 0000 0000 0000 000000
2014-06-06 04:07:10,-0.03,0.45,0.00,26.98,30.79,33.13,9.34,38.09,1017.59,2025.18,3268.89,3173.99,3449.08,499.83,490.39,34.34,0000 0000 0000 0000 000000
2014-06-06 04:12:11,0.02,0.45,0.00,27.01,30.82,33.16,9.49,38.24,1017.60,2025.04,3268.14,3173.38,3448.99,499.99,490.50,34.38,0000 0000 0000 0000 000000
2014-06-06 04:17:12,0.02,0.45,0.00,27.04,30.86,33.20,9.41,38.26,1017.61,2025.00,3267.97,3173.01,3448.39,499.63,490.19,34.43,0000 0000 0000 0000 000000
2014-06-06 04:22:13,0.01,0.45,0.00,27.07,30.89,33.23,9.46,38.23,1017.60,2025.00,3267.52,3172.96,3448.01,499.49,489.82,34.47,0000 0000 0000 0000 000000
2014-06-06 04:27:14,0.03,0.45,0.00,27.10,30.92,33.26,9.39,38.07,1017.60,2024.99,3267.03,3172.40,3447.91,500.04,490.39,34.51,0000 0000 0000 0000 000000
2014-06-06 04:32:16,0.02,0.45,0.00,27.12,30.96,33.29,9.48,38.17,1017.59,2024.97,3266.92,3172.01,3447.17,500.03,490.72,34.55,0000 0000 0000 0000 000000
2014-06-06 04:37:17,0.01,0.45,0.00,27.15,30.99,33.32,9.41,38.13,1017.59,2024.88,3266.16,3171.95,3447.00,499.99,490.53,34.59,0000 0000 0000 0000 000000
2014-06-06 04:42:18,0.00,0.45,0.00,27.19,31.02,33.35,9.46,38.12,1017.59,2024.51,3266.00,3171.22,3446.53,500.01,490.34,34.63,0000 0000 0000 0000 000000
2014-06-06 04:47:19,-0.02,0.45,0.00,27.21,31.06,33.39,9.52,38.03,1017.59,2024.13,3265.43,3171.00,3446.02,500.12,490.28,34.68,0000 0000 0000 0000 000000
2014-06-06 04:52:20,0.03,0.45,0.00,27.24,31.09,33.42,9.36,38.09,1017.59,2024.01,3265.01,3170.53,3445.51,499.73,489.95,34.72,0000 0000 0000 0000 000000
2014-06-06 04:57:21,0.03,0.45,0.00,27.26,31.12,33.45,9.43,38.23,1017.59,2024.00,3264.37,3169.90,3444.87,499.86,489.94,34.76,0000 0000 0000 0000 000000
2014-06-06 05:02:22,0.08,0.46,0.00,27.29,31.15,33.48,9.38,38.02,1017.59,2023.98,3263.13,3168.92,3443.70,500.13,490.17,34.80,0000 0000 0000 0000 000000
2014-06-06 05:07:24,0.04,0.46,0.00,27.31,31.18,33.51,9.48,37.95,1017.59,2023.96,3262.54,3168.15,3443.04,499.92,490.06,34.84,0000 0000 0000 0000 000000
2014-06-06 05:12:25,-0.03,0.46,0.00,27.34,31.21,33.53,9.48,37.91,1017.59,2023.75,3262.02,3168.00,3442.97,500.06,490.02,34.88,0000 0000 0000 0000 000000
2014-06-06 05:17:26,-0.01,0.46,0.00,27.37,31.24,33.57,9.50,38.13,1017.59,2023.26,3261.84,3167.77,3442.27,500.35,490.23,34.92,0000 0000 0000 0000 000000
2014-06-06 05:22:27,0.02,0.46,0.00,27.39,31.27,33.59,9.43,38.11,1017.58,2023.04,3261.12,3167.10,3441.93,500.16,490.15,34.97,0000 0000 0000 0000 000000
2014-06-06 05:27:28,0.13,0.46,0.00,27.41,31.30,33.62,9.31,38.00,1017.58,2023.00,3259.50,3165.70,3440.41,499.62,489.65,35.01,0000 0000 0000 0000 000000
2014-06-06 05:32:29,0.09,0.46,0.00,27.44,31.33,33.65,9.36,37.97,1017.59,2023.00,3257.74,3164.24,3438.87,499.88,489.74,35.05,0000 0000 0000 0000 000000
2014-06-06 05:37:30,0.02,0.47,0.00,27.47,31.36,33.67,9.36,38.10,1017.59,2023.00,3257.02,3163.87,3438.06,499.61,489.48,35.09,0000 0000 0000 0000 000000
2014-06-06 05:42:31,0.04,0.47,0.00,27.49,31.38,33.71,9.46,38.07,1017.57,2022.99,3256.55,3163.11,3437.75,500.09,489.82,35.13,0000 0000 0000 0000 000000
2014-06-06 05:47:33,0.12,0.47,0.00,27.52,31.41,33.73,9.40,38.05,1017.53,2022.95,3254.67,3161.67,3436.06,499.95,489.91,35.17,0000 0000 0000 0000 000000
2014-06-06 05:52:34,0.09,0.48,0.00,27.55,31.43,33.75,9.34,38.03,1017.55,2022.71,3252.47,3159.90,3434.25,499.84,489.48,35.22,0000 0000 0000 0000 000000
2014-06-06 05:57:36,0.04,0.48,0.00,27.56,31.46,33.79,9.46,38.01,1017.56,2022.21,3250.96,3158.54,3432.81,500.27,489.70,35.26,0000 0000 0000 0000 000000
2014-06-06 06:02:37,0.01,0.48,0.00,27.60,31.49,33.81,9.43,38.17,1017.57,2022.04,3250.16,3158.01,3432.07,500.30,489.67,35.30,0000 0000 0000 0000 000000
2014-06-06 06:07:38,0.01,0.48,0.00,27.61,31.52,33.84,9.47,38.08,1017.59,2022.01,3249.98,3157.92,3431.99,500.33,489.90,35.34,0000 0000 0000 0000 000000
2014-06-06 06:12:39,0.05,0.48,0.00,27.63,31.55,33.87,9.44,38.14,1017.59,2022.00,3249.41,3157.24,3431.48,500.31,489.81,35.38,0000 0000 0000 0000 000000
2014-06-06 06:17:40,0.01,0.48,0.00,27.66,31.57,33.89,9.34,38.14,1017.57,2021.99,3249.01,3157.01,3431.02,500.13,489.55,35.42,0000 0000 0000 0000 000000
2014-06-06 06:22:41,0.01,0.48,0.00,27.69,31.60,33.92,9.39,38.18,1017.43,2021.97,3248.80,3156.92,3430.89,499.80,489.20,35.47,0000 0000 0000 0000 000000
2014-06-06 06:27:43,0.04,0.49,0.00,27.71,31.62,33.94,9.38,38.13,1017.55,2021.96,3248.13,3156.35,3430.27,499.74,489.14,35.51,0000 0000 0000 0000 000000
2014-06-06 06:32:44,-0.04,0.49,0.00,27.74,31.65,33.97,9.42,38.02,1017.59,2021.62,3247.99,3156.01,3429.99,499.96,489.34,35.55,0000 0000 0000 0000 000000
2014-06-06 06:37:45,0.00,0.48,0.00,27.76,31.68,34.00,9.40,37.98,1017.59,2021.15,3247.38,3155.80,3429.38,500.07,489.38,35.59,0000 0000 0000 0000 000000
2014-06-06 06:42:46,0.01,0.48,0.00,27.80,31.71,34.02,9.37,37.89,1017.58,2021.01,3247.00,3155.07,3429.00,500.10,489.36,35.63,0000 0000 0000 0000 000000
2014-06-06 06:47:47,0.02,0.48,0.00,27.81,31.73,34.04,9.41,37.88,1017.59,2021.00,3246.59,3154.98,3428.74,500.10,489.34,35.67,0000 0000 0000 0000 000000
2014-06-06 06:52:48,0.03,0.49,0.00,27.85,31.76,34.07,9.44,37.88,1017.59,2021.00,3246.03,3154.67,3428.08,500.00,489.36,35.71,0000 0000 0000 0000 000000
2014-06-06 06:57:50,0.02,0.49,0.00,27.87,31.78,34.10,9.35,37.94,1017.59,2021.00,3245.84,3154.07,3427.98,499.98,489.07,35.76,0000 0000 0000 0000 000000
2014-06-06 07:02:51,0.03,0.49,0.00,27.89,31.81,34.13,9.38,38.08,1017.59,2020.99,3245.11,3153.98,3427.49,499.97,488.94,35.80,0000 0000 0000 0000 000000
2014-06-06 07:07:52,0.02,0.49,0.00,27.92,31.84,34.15,9.49,38.24,1017.59,2020.96,3244.98,3153.52,3427.02,500.16,489.16,35.84,0000 0000 0000 0000 000000
2014-06-06 07:12:53,0.01,0.49,0.00,27.95,31.86,34.18,9.33,38.16,1017.59,2020.78,3244.33,3153.03,3426.77,499.95,488.79,35.88,0000 0000 0000 0000 000000
2014-06-06 07:17:55,-0.02,0.49,0.00,27.98,31.89,34.20,9.42,38.17,1017.59,2020.47,3244.00,3152.98,3426.11,500.25,489.09,35.92,0000 0000 0000 0000 000000
2014-06-06 07:22:56,0.00,0.49,0.00,28.01,31.91,34.22,9.43,38.37,1017.59,2020.12,3243.50,3152.33,3425.93,499.99,488.76,35.96,0000 0000 0000 0000 000000
2014-06-06 07:27:57,0.01,0.49,0.00,28.05,31.94,34.25,9.40,38.22,1017.59,2020.02,3243.01,3152.00,3425.23,499.91,488.73,36.01,0000 0000 0000 0000 000000
2014-06-06 07:32:58,0.03,0.49,0.00,28.08,31.96,34.27,9.39,37.98,1017.59,2020.00,3242.48,3151.62,3424.99,499.69,488.47,36.05,0000 0000 0000 0000 000000
2014-06-06 07:37:59,0.03,0.49,0.00,28.11,31.99,34.30,9.40,38.02,1017.59,2020.00,3242.02,3151.06,3424.61,499.91,488.62,36.09,0000 0000 0000 0000 000000
2014-06-06 07:43:01,0.02,0.49,0.00,28.14,32.02,34.32,9.34,38.01,1017.56,2020.00,3241.69,3150.97,3424.03,500.18,488.84,36.13,0000 0000 0000 0000 000000
2014-06-06 07:48:02,0.03,0.49,0.00,28.16,32.04,34.34,9.41,38.02,1017.38,2019.99,3241.06,3150.50,3423.94,500.21,488.59,36.17,0000 0000 0000 0000 000000
2014-06-06 07:53:02,0.02,0.50,0.00,28.19,32.07,34.37,9.39,37.93,1017.28,2019.97,3240.97,3150.02,3423.20,500.05,488.48,36.21,0000 0000 0000 0000 000000
2014-06-06 07:58:04,0.01,0.50,0.00,28.22,32.10,34.40,9.39,37.83,1017.35,2019.92,3240.30,3149.97,3422.99,500.11,488.56,36.26,0000 0000 0000 0000 000000
2014-06-06 08:03:05,0.01,0.50,0.00,28.25,32.13,34.42,9.35,37.72,1017.32,2019.65,3240.00,3149.45,3422.51,499.92,488.42,36.30,0000 0000 0000 0000 000000
2014-06-06 08:08:06,-0.03,0.50,0.00,28.29,32.15,34.45,9.43,37.94,1017.38,2019.16,3239.53,3149.02,3422.01,500.31,488.69,36.34,0000 0000 0000 0000 000000
2014-06-06 08:13:07,0.02,0.50,0.00,28.32,32.18,34.48,9.37,38.15,1017.40,2019.02,3239.01,3148.70,3421.54,499.70,488.11,36.38,0000 0000 0000 0000 000000
2014-06-06 08:18:08,0.03,0.50,0.00,28.36,32.21,34.50,9.46,38.27,1017.20,2019.00,3238.74,3148.11,3421.06,500.20,488.24,36.42,0000 0000 0000 0000 000000
2014-06-06 08:23:09,0.01,0.50,0.00,28.39,32.24,34.53,9.38,38.23,1017.18,2019.00,3238.07,3147.99,3420.93,500.05,488.13,36.46,0000 0000 0000 0000 000000
2014-06-06 08:28:10,0.03,0.50,0.00,28.42,32.26,34.55,9.36,37.91,1017.25,2019.00,3237.86,3147.57,3420.21,499.96,488.00,36.50,0000 0000 0000 0000 000000
2014-06-06 08:33:11,0.02,0.50,0.00,28.44,32.29,34.58,9.36,37.98,1017.40,2018.99,3237.12,3147.02,3419.98,499.86,487.88,36.55,0000 0000 0000 0000 000000
2014-06-06 08:38:12,0.01,0.50,0.00,28.48,32.32,34.61,9.31,37.88,1017.40,2018.91,3236.98,3146.94,3419.42,499.71,487.90,36.59,0000 0000 0000 0000 000000
2014-06-06 08:43:13,0.02,0.50,0.00,28.50,32.35,34.64,9.40,37.86,1017.28,2018.68,3236.43,3146.33,3419.01,500.23,488.12,36.63,0000 0000 0000 0000 000000
2014-06-06 08:48:14,-0.04,0.50,0.00,28.52,32.38,34.66,9.39,37.79,1017.39,2018.29,3236.01,3146.00,3418.64,500.26,488.22,36.67,0000 0000 0000 0000 000000
2014-06-06 08:53:15,0.01,0.50,0.00,28.55,32.41,34.69,9.34,38.01,1017.53,2018.04,3235.88,3145.87,3418.08,500.01,488.07,36.71,0000 0000 0000 0000 000000
2014-06-06 08:58:16,0.03,0.50,0.00,28.57,32.43,34.72,9.45,37.98,1017.56,2018.00,3235.15,3145.17,3417.92,500.12,487.99,36.75,0000 0000 0000 0000 000000
2014-06-06 09:03:17,0.02,0.50,0.00,28.61,32.46,34.75,9.30,37.94,1017.58,2018.00,3234.91,3144.98,3417.18,499.81,487.72,36.79,0000 0000 0000 0000 000000
2014-06-06 09:08:18,0.04,0.50,0.00,28.63,32.49,34.77,9.37,38.02,1017.59,2017.98,3234.18,3144.42,3416.95,499.64,487.40,36.84,0000 0000 0000 0000 000000
2014-06-06 09:13:19,0.01,0.51,0.00,28.66,32.51,34.80,9.41,38.03,1017.59,2017.95,3233.91,3144.00,3416.35,500.26,488.10,36.88,0000 0000 0000 0000 000000
2014-06-06 09:18:20,-0.00,0.51,0.00,28.67,32.54,34.83,9.38,37.82,1017.58,2017.79,3233.16,3143.91,3416.00,499.94,487.77,36.92,0000 0000 0000 0000 000000
2014-06-06 09:23:21,-0.01,0.50,0.00,28.70,32.56,34.86,9.37,37.88,1017.39,2017.31,3232.97,3143.18,3415.60,500.12,487.83,36.96,0000 0000 0000 0000 000000
2014-06-06 09:28:22,0.01,0.50,0.00,28.73,32.59,34.89,9.47,37.84,1017.40,2017.06,3232.27,3142.99,3415.03,500.41,487.97,37.00,0000 0000 0000 0000 000000
2014-06-06 09:33:23,0.01,0.51,0.00,28.76,32.61,34.91,9.33,37.78,1017.32,2017.02,3232.00,3142.62,3414.89,500.00,487.59,37.04,0000 0000 0000 0000 000000
2014-06-06 09:38:25,0.04,0.51,0.00,28.79,32.64,34.94,9.35,37.67,1017.21,2017.00,3231.58,3142.05,3414.17,500.07,487.59,37.09,0000 0000 0000 0000 000000
2014-06-06 09:43:26,0.00,0.51,0.00,28.82,32.66,34.96,9.32,37.79,1017.30,2017.00,3231.02,3141.95,3413.97,499.72,487.36,37.13,0000 0000 0000 0000 000000
2014-06-06 09:48:27,0.05,0.51,0.00,28.85,32.69,34.99,9.38,37.85,1017.48,2016.98,3230.60,3141.22,3413.23,500.16,487.76,37.17,0000 0000 0000 0000 000000
2014-06-06 09:53:28,0.01,0.51,0.00,28.87,32.71,35.02,9.29,37.70,1017.50,2016.93,3230.03,3141.00,3413.00,499.82,487.16,37.21,0000 0000 0000 0000 000000
2014-06-06 09:58:29,-0.01,0.51,0.00,28.90,32.74,35.04,9.38,37.70,1017.53,2016.69,3229.82,3140.80,3412.53,500.06,487.50,37.25,0000 0000 0000 0000 000000
2014-06-06 10:03:30,0.01,0.51,0.00,28.92,32.77,35.07,9.40,37.66,1017.52,2016.45,3229.21,3140.21,3412.04,500.21,487.70,37.29,0000 0000 0000 0000 000000
2014-06-06 10:08:32,-0.02,0.51,0.00,28.95,32.80,35.10,9.45,37.50,1017.58,2016.24,3229.00,3140.01,3411.96,500.25,487.62,37.33,0000 0000 0000 0000 000000
2014-06-06 10:13:33,0.02,0.51,0.00,28.97,32.82,35.13,9.41,37.53,1017.59,2016.05,3228.68,3139.81,3411.35,500.35,487.55,37.38,0000 0000 0000 0000 000000
2014-06-06 10:18:34,0.03,0.51,0.00,29.00,32.85,35.16,9.29,37.57,1017.59,2016.01,3228.02,3139.09,3410.95,499.55,486.84,37.42,0000 0000 0000 0000 000000
2014-06-06 10:23:35,0.05,0.51,0.00,29.03,32.88,35.19,9.47,37.79,1017.60,2016.00,3227.26,3138.62,3410.14,500.50,487.79,37.46,0000 0000 0000 0000 000000
2014-06-06 10:28:37,0.04,0.52,0.00,29.06,32.91,35.21,9.24,37.68,1017.60,2016.00,3226.51,3137.93,3409.39,499.81,487.23,37.50,0000 0000 0000 0000 000000
2014-06-06 10:33:38,0.04,0.52,0.00,29.09,32.94,35.24,9.34,37.77,1017.60,2015.98,3225.95,3137.12,3408.83,500.10,487.23,37.54,0000 0000 0000 0000 000000
2014-06-06 10:38:39,0.03,0.52,0.00,29.13,32.96,35.27,9.35,37.74,1017.61,2015.95,3225.22,3136.88,3408.09,499.85,486.95,37.58,0000 0000 0000 0000 000000
2014-06-06 10:43:41,0.00,0.52,0.00,29.17,32.99,35.31,9.37,37.84,1017.61,2015.72,3224.77,3136.09,3407.64,500.22,487.36,37.63,0000 0000 0000 0000 000000
2014-06-06 10:48:42,-0.02,0.52,0.00,29.21,33.01,35.35,9.41,37.92,1017.74,2015.23,3224.04,3135.75,3407.02,500.27,487.20,37.67,0000 0000 0000 0000 000000
2014-06-06 10:53:43,0.03,0.52,0.00,29.25,33.05,35.39,9.36,37.91,1017.67,2015.06,3223.78,3135.09,3406.52,500.08,486.89,37.71,0000 0000 0000 0000 000000
2014-06-06 10:58:44,0.01,0.52,0.00,29.29,33.08,35.43,9.39,37.76,1017.63,2015.01,3223.12,3135.00,3406.02,500.13,486.93,37.75,0000 0000 0000 0000 000000
2014-06-06 11:03:45,0.01,0.52,0.00,29.32,33.11,35.47,9.30,37.68,1017.64,2015.01,3222.96,3134.88,3405.84,499.73,486.55,37.79,0000 0000 0000 0000 000000
2014-06-06 11:08:46,0.05,0.52,0.00,29.36,33.14,35.50,9.30,37.88,1017.64,2015.00,3222.36,3134.20,3405.13,499.94,486.80,37.83,0000 0000 0000 0000 000000
2014-06-06 11:13:48,0.03,0.52,0.00,29.37,33.17,35.54,9.38,37.84,1017.64,2014.96,3221.81,3133.82,3404.60,499.82,486.64,37.88,0000 0000 0000 0000 000000
2014-06-06 11:18:49,-0.00,0.52,0.00,29.40,33.20,35.55,9.30,37.83,1017.62,2014.65,3221.03,3133.03,3403.88,499.94,486.49,37.92,0000 0000 0000 0000 000000
2014-06-06 11:23:50,0.01,0.52,0.00,29.41,33.23,35.58,9.33,37.89,1017.61,2014.14,3220.21,3132.23,3402.98,499.70,486.43,37.96,0000 0000 0000 0000 000000
2014-06-06 11:28:51,0.11,0.53,0.00,29.42,33.26,35.61,9.34,37.87,1017.60,2014.04,3218.65,3130.94,3401.44,499.85,486.55,38.00,0000 0000 0000 0000 000000
2014-06-06 11:33:53,0.30,0.54,0.00,29.43,33.29,35.62,9.37,37.65,1017.60,2014.00,3214.71,3127.36,3397.62,500.09,486.73,38.04,0000 0000 0000 0000 000000
2014-06-06 11:38:54,0.61,0.56,0.00,29.43,33.31,35.64,9.32,37.64,1017.60,2014.00,3206.51,3119.94,3389.88,500.19,486.83,38.08,0000 0000 0000 0000 000000
2014-06-06 11:43:55,0.52,0.58,0.00,29.43,33.33,35.66,9.33,37.49,1017.59,2013.97,3197.86,3112.12,3381.68,499.80,486.55,38.13,0000 0000 0000 0000 000000
2014-06-06 11:48:56,0.29,0.60,0.00,29.42,33.35,35.67,9.33,37.61,1017.60,2013.96,3192.83,3107.70,3377.01,500.06,486.61,38.17,0000 0000 0000 0000 000000
2014-06-06 11:53:57,0.13,0.61,0.00,29.40,33.37,35.69,9.31,37.58,1017.61,2013.88,3189.94,3105.29,3374.36,499.81,486.58,38.21,0000 0000 0000 0000 000000
2014-06-06 11:58:59,0.10,0.61,0.00,29.37,33.39,35.70,9.38,37.77,1017.59,2013.71,3188.18,3103.66,3372.66,499.82,486.48,38.25,0000 0000 0000 0000 000000
2014-06-06 12:04:00,0.03,0.61,0.00,29.32,33.40,35.72,9.26,37.50,1017.60,2013.27,3186.81,3102.33,3371.24,500.05,486.65,38.29,0000 0000 0000 0000 000000
2014-06-06 12:09:01,0.09,0.62,0.00,29.29,33.42,35.73,9.31,37.65,1017.59,2013.12,3185.59,3101.08,3369.82,499.89,486.61,38.33,0000 0000 0000 0000 000000
2014-06-06 12:14:02,0.08,0.62,0.00,29.26,33.42,35.74,9.38,37.67,1017.59,2013.05,3184.30,3099.69,3368.38,500.12,486.91,38.37,0000 0000 0000 0000 000000
2014-06-06 12:19:03,0.14,0.62,0.00,29.24,33.45,35.76,9.40,37.82,1017.59,2013.01,3182.39,3097.92,3366.47,500.09,486.96,38.42,0000 0000 0000 0000 000000
2014-06-06 12:24:05,0.17,0.63,0.00,29.22,33.45,35.77,9.41,37.73,1017.59,2013.00,3179.85,3095.66,3363.95,500.23,487.17,38.46,0000 0000 0000 0000 000000
2014-06-06 12:29:06,0.08,0.64,0.00,29.20,33.45,35.77,9.31,37.60,1017.59,2013.00,3178.38,3094.32,3362.46,499.98,486.99,38.50,0000 0000 0000 0000 000000
2014-06-06 12:34:07,0.07,0.64,0.00,29.18,33.47,35.78,9.34,37.64,1017.59,2013.00,3177.26,3093.34,3361.46,500.07,487.19,38.54,0000 0000 0000 0000 000000
2014-06-06 12:39:08,0.03,0.64,0.00,29.16,33.47,35.78,9.38,37.61,1017.59,2012.99,3176.42,3092.80,3360.82,500.28,487.32,38.58,0000 0000 0000 0000 000000
2014-06-06 12:44:09,0.08,0.64,0.00,29.15,33.47,35.77,9.41,37.72,1017.59,2012.99,3175.37,3091.77,3359.73,499.99,487.08,38.62,0000 0000 0000 0000 000000
2014-06-06 12:49:10,0.10,0.65,0.00,29.15,33.47,35.77,9.37,37.88,1017.59,2012.98,3173.78,3090.53,3358.37,500.03,486.99,38.67,0000 0000 0000 0000 000000
2014-06-06 12:54:11,0.09,0.65,0.00,29.14,33.47,35.78,9.43,37.88,1017.60,2012.95,3172.21,3089.15,3356.87,500.00,487.01,38.71,0000 0000 0000 0000 000000
2014-06-06 12:59:12,0.11,0.66,0.00,29.12,33.48,35.78,9.40,37.79,1017.59,2012.93,3170.62,3087.75,3355.44,500.21,487.21,38.75,0000 0000 0000 0000 000000